Location: Plainartige
(45.6866°N, 1.7993°E)
Time: 03:06:35
(UTC+00:00)

BEESAT - Pass Details

Date: 27 June 2022
Orbit: 700 x 706 km, 98.6° (Epoch: 09 August)

Event Time Altitude Azimuth Distance (km) Brightness Sun altitude
Rises 20:37:57 0° 11° (N) 3,103 ? -7.7°
Reaches altitude 10° 20:40:13 10° 9° (N) 2,181 ? -8.0°
Maximum altitude 20:44:57 68° 287° (WNW) 762 ? -8.5°
Drops below altitude 10° 20:49:40 10° 206° (SSW) 2,169 ? -9.1°
Sets 20:51:55 0° 203° (SSW) 3,084 ? -9.4°
